Location: Unspecified
(51.0000°N, 12.0000°E)
Time: 18:03:51
(UTC+02:00)

ISS - Pass Details

Date: 18 March 2018
Orbit: 403 x 408 km, 51.6° (Epoch: 20 September)

Event Time Altitude Azimuth Distance (km) Brightness Sun altitude
Exits shadow 03:38:30 13° 122° (ESE) 1,313 -1.0 -24.9°
Drops below altitude 10° 03:38:56 10° 120° (ESE) 1,487 -0.7 -24.9°
Sets 03:41:02 0° 117° (ESE) 2,343 0.4 -24.6°
